359  
NZUS99 KSGF 280207  
HRRSGF  
 
HOURLY WEATHER  
NATIONAL WEATHER SERVICE SPRINGFIELD MO  
900 PM CDT THU JUL 27 2017  
   
.....SGF CWA...
 
 
 
CITY SKY/WX TMP DP RH WIND PRES REMARKS  
SPRINGFIELD CLOUDY 80 76 87 NE6 29.92R  
JOPLIN MOCLDY 79 78 97 NE3 29.91F  
WEST PLAINS CLOUDY 78 74 87 SW3 29.94R  
ROLLA CLOUDY 75 73 93 N3 29.94R  
OSAGE BEACH CLOUDY 77 76 96 CALM 29.92R  
BRANSON CLOUDY 77 75 94 SE5 29.94R  
   
.....SURROUNDING SGF CWA...
 
 
 
CITY SKY/WX TMP DP RH WIND PRES REMARKS  
CHANUTE LGT RAIN 80 74 81 NE7 29.92R  
PARSONS TSTM 76 75 97 NE3 29.92S  
COFFEYVILLE CLOUDY 77 76 96 N5 29.89S  
EMPORIA MOCLDY 78 71 79 NE5 29.94R  
GROVE OK CLOUDY 81 77 89 CALM 29.90S  
ROGERS AR PTCLDY 82 74 76 S5 29.94R  
SILOAM SPRINGS PTCLDY 81 72 74 SE3 29.91S  
HARRISON AR PTCLDY 79 77 94 E3 29.94R  
NEAR YELLVILLE CLOUDY 81 72 74 CALM 29.89S  
   
.....KANSAS AND MISSOURI...
 
 
 
CITY SKY/WX TMP DP RH WIND PRES REMARKS  
KANSAS CTY INT MOCLDY 79 71 76 NE5 29.94S  
COLUMBIA CLOUDY 78 75 90 CALM 29.92R  
SEDALIA CLOUDY 79 77 94 NE3 29.93S  
ST JOSEPH MOCLDY 76 73 91 N6 29.94R  
ST LOUIS MOCLDY 80 72 76 N5 29.89R  
SPIRIT OF STL MOCLDY 77 76 96 N3 29.87S  
KIRKSVILLE CLEAR 75 70 84 NE6 29.94S  
WICHITA CLOUDY 83 71 67 NE9 29.94S  
TOPEKA CLEAR 79 74 84 N5 29.93S  
OLATHE CLEAR 79 72 79 NE7 29.94R  
   
.....TENNESSEE...
 
 
 
CITY SKY/WX TMP DP RH WIND PRES REMARKS  
MEMPHIS LGT RAIN 83 81 94 CALM 29.92R HX 97  
NASHVILLE CLOUDY 85 73 67 SW3 29.91F HX 91  
   
.....ARKANSAS....
 
 
 
CITY SKY/WX TMP DP RH WIND PRES REMARKS  
FAYETTEVILLE CLOUDY 80 79 96 CALM 29.93R  
FT SMITH MOCLDY 90 76 63 SW3 29.86R HX 101  
LITTLE ROCK CLOUDY 85 77 77 SW3 29.88S HX 95  
   
.....OKLAHOMA....
 
 
 
CITY SKY/WX TMP DP RH WIND PRES REMARKS  
TULSA CLOUDY 87 74 64 E3 29.85R HX 95  
PONCA CITY MOCLDY 84 74 71 N9 29.89S HX 91  
MCALESTER CLEAR 88 74 63 S5 29.87S HX 96  
OKLAHOMA CITY CLOUDY 83 70 64 N5 29.89R  
   
.....IOWA.........
 
 
 
CITY SKY/WX TMP DP RH WIND PRES REMARKS  
DES MOINES PTCLDY 77 59 53 NE7 29.97S  
QUAD CITIES CLEAR 78 63 59 NE7 29.94R  
   
.....ILLINOIS.....
 
 
 
CITY SKY/WX TMP DP RH WIND PRES REMARKS  
QUINCY PTCLDY 79 71 76 N7 29.90F  
CHICAGO PTCLDY 72 56 57 N12 29.94F  
 
CLICK HERE TO GO TO PREVIOUS BULLETINS.

The Nexlab MO Page
The Nexlab KS Page Main Text Page